Location: Unspecified
(34.4950°S, 58.5160°W)
Time: 18:51:29
(UTC+00:00)

OAO 2 Rocket - Pass Details

Date: 04 December 2021
Orbit: 675 x 746 km, 35.0° (Epoch: 28 January)

Event Time Altitude Azimuth Distance (km) Brightness Sun altitude
Rises 23:11:25 0° 290° (WNW) 3,082 7.3 -3.8°
Reaches altitude 10° 23:13:48 10° 292° (WNW) 2,178 6.4 -4.2°
Maximum altitude 23:18:54 71° 15° (NNE) 765 3.4 -5.1°
Drops below altitude 10° 23:24:08 10° 98° (E) 2,233 5.5 -6.0°
Sets 23:26:37 0° 100° (E) 3,167 6.2 -6.5°
